Glendale Luke AFB, AZ

9:39 AM MST on December 10, 2019 (GMT -0700)
Luke Air Force Base

Weather History for KLUF - August, 2019

Change the Weather History Date:

Tuesday, August 13, 2019

  Actual Average Record
Temperature  
Mean Temperature 94 °F -  
Max Temperature 108 °F 105 °F 115 °F (1962)
Min Temperature 79 °F 73 °F 63 °F (1917)
Cooling Degree Days 28    
Growing Degree Days 44 (Base 50)    
Moisture  
Dew Point 44 °F    
Average Humidity 18    
Maximum Humidity 28    
Minimum Humidity 11    
Precipitation  
Precipitation 0.00 in - - ()
Sea Level Pressure  
Sea Level Pressure 29.83 in    
Wind  
Wind Speed 4 mph (WSW)    
Max Wind Speed 16 mph    
Max Gust Speed 20 mph    
Visibility 10 miles    
Events      
Averages and records for this station are not official NWS values.
T = Trace of Precipitation, MM = Missing Value Source: NWS Daily Summary

Daily Weather History Graph

Daily Weather History Graph

Search for Another Location

Airport or City:

Astronomy

Aug. 13, 2019 Rise Set
Actual Time 5:50 AM MST 7:17 PM MST
Civil Twilight 5:23 AM MST 7:44 PM MST
Nautical Twilight 4:52 AM MST 8:15 PM MST
Astronomical Twilight 4:19 AM MST 8:48 PM MST
Moon 6:30 PM MST (8/13) 4:01 AM MST (8/13)
Length of Visible Light 14h 20m
Length of Day
13h 27m
Waxing Gibbous, 97% of the Moon is Illuminated
Aug 13
Waxing Gibbous
Aug 15
Full
Aug 23
Last Quarter
Aug 30
New
Sep 5
First Quarter

Hourly Weather History & Observations

Time (MST) Temp. Dew Point Humidity Pressure Visibility Wind Dir Wind Speed Gust Speed Precip Events Conditions
12:58 AM 86.7 °F 39.6 °F 19% 29.83 in 10.0 mi East 3.5 mph - N/A   Clear
1:58 AM 82.8 °F 43.3 °F 25% 29.83 in 10.0 mi Calm Calm - N/A   Clear
2:58 AM 83.7 °F 41.9 °F 23% 29.83 in 10.0 mi Calm Calm - N/A   Clear
3:58 AM 82.8 °F 41.2 °F 23% 29.84 in 10.0 mi Calm Calm - N/A   Clear
4:58 AM 79.2 °F 43.2 °F 28% 29.85 in 10.0 mi North 3.5 mph - N/A   Clear
5:58 AM 79.7 °F 42.8 °F 27% 29.87 in 10.0 mi Calm Calm - N/A   Clear
6:58 AM 82.9 °F 41.4 °F 23% 29.89 in 10.0 mi North 4.6 mph - N/A   Clear
7:58 AM 87.1 °F 44.8 °F 23% 29.90 in 10.0 mi NE 3.5 mph - N/A   Clear
8:58 AM 92.5 °F 39.7 °F 16% 29.90 in 10.0 mi ENE 3.5 mph - N/A   Clear
9:58 AM 96.1 °F 42.6 °F 16% 29.91 in 10.0 mi Calm Calm - N/A   Clear
10:58 AM 98.6 °F 44.6 °F 16% 29.91 in 10.0 mi SSE 4.6 mph - N/A   Clear
11:58 AM 101.3 °F 46.8 °F 16% 29.88 in 10.0 mi Calm Calm - N/A   Partly Cloudy
12:58 PM 104.0 °F 47.1 °F 15% 29.86 in 10.0 mi West 3.5 mph - N/A   Partly Cloudy
1:58 PM 105.1 °F 48.0 °F 15% 29.83 in 10.0 mi SW 10.4 mph - N/A   Clear
2:58 PM 106.9 °F 47.5 °F 14% 29.81 in 10.0 mi WSW 8.1 mph - N/A   Clear
3:58 PM 107.4 °F 48.0 °F 14% 29.78 in 10.0 mi SSW 16.1 mph 19.6 mph N/A   Clear
4:34 PM 107.6 °F 46.4 °F 13% 29.77 in 10.0 mi WSW 11.5 mph - N/A   Clear
4:58 PM 108.3 °F 42.3 °F 11% 29.77 in 10.0 mi SSW 11.5 mph - N/A   Clear
5:58 PM 107.1 °F 43.7 °F 12% 29.75 in 10.0 mi SSW 9.2 mph - N/A   Clear
6:58 PM 105.3 °F 44.4 °F 13% 29.75 in 10.0 mi WSW 12.7 mph - N/A   Clear
7:58 PM 100.8 °F 44.6 °F 15% 29.77 in 10.0 mi WSW 6.9 mph - N/A   Clear
8:58 PM 96.6 °F 44.6 °F 17% 29.78 in 10.0 mi West 6.9 mph - N/A   Clear
9:58 PM 94.5 °F 45.9 °F 19% 29.80 in 10.0 mi Calm Calm - N/A   Clear
10:58 PM 89.1 °F 47.5 °F 24% 29.81 in 10.0 mi North 5.8 mph - N/A   Clear
11:58 PM 91.0 °F 38.7 °F 16% 29.81 in 10.0 mi Calm Calm - N/A   Clear